Location: Brzeg Dolny
(51.2709°N, 16.7199°E)
Time: 02:24:24
(UTC+01:00)

ISS - Visible Passes

Search period start: 23 January 2019 00:00
Search period end: 02 February 2019 00:00
Orbit: 404 x 411 km, 51.6° (Epoch: 23 January)

Date Brightness Start Highest point End Pass type
(mag) Time Alt. Az. Time Alt. Az. Time Alt. Az.
23 Jan -1.6 18:39:45 10° SSW 18:41:04 17° S 18:41:04 17° S visible
24 Jan -1.7 17:49:22 10° S 17:51:13 14° SE 17:52:03 13° ESE visible
24 Jan -1.0 19:23:59 10° SW 19:24:46 16° SW 19:24:46 16° SW visible
25 Jan -2.9 18:32:51 10° SW 18:35:40 36° SSE 18:35:40 36° SSE visible
26 Jan -2.4 17:41:54 10° SSW 17:44:42 26° SSE 17:46:30 16° ESE visible
26 Jan -1.6 19:17:39 10° WSW 19:19:13 26° WSW 19:19:13 26° WSW visible
27 Jan -3.7 18:26:19 10° WSW 18:29:35 61° SSE 18:30:00 55° ESE visible
28 Jan -3.1 17:35:06 10° SW 17:38:16 44° SSE 17:40:44 15° E visible
28 Jan -2.2 19:11:23 10° W 19:13:26 35° W 19:13:26 35° W visible
29 Jan -3.9 18:19:58 10° WSW 18:23:16 86° SSE 18:24:08 47° E visible
29 Jan -0.3 19:56:32 10° W 19:56:51 12° W 19:56:51 12° W visible
30 Jan -3.7 17:28:34 10° WSW 17:31:51 70° SSE 17:34:49 12° E visible
30 Jan -2.7 19:05:06 10° W 19:07:31 45° W 19:07:31 45° W visible
31 Jan -3.9 18:13:38 10° W 18:16:57 82° N 18:18:11 36° E visible
31 Jan -0.6 19:50:12 10° W 19:50:54 15° W 19:50:54 15° W visible
01 Feb -3.8 17:22:10 10° W 17:25:29 89° N 17:28:48 10° E visible
01 Feb -3.4 18:58:45 10° W 19:01:34 61° W 19:01:34 61° W visible
